Location: Kailua
(21.4020°N, 157.7390°W)
Time: 12:25:43
(UTC-10:00)

Daily predictions for brighter satellites

Satellite Brightness Start Highest point End
(mag) Time Altitude Azimuth Time Altitude Azimuth Time Altitude Azimuth
ATLAS 3B CENTAUR R/B 3.8 18:30:09 10° W 18:36:41 79° NNW 18:56:02 10° ENE
Cosmos 1726 Rocket 3.7 18:39:22 10° S 18:43:44 82° W 18:48:05 10° N
EXPRESS MD2 3.5 18:41:35 10° NNW 18:44:28 48° NE 18:49:42 10° SE
Cosmos 1943 Rocket 2.3 18:39:12 10° N 18:44:42 55° ENE 18:50:12 10° SSE
COSMO-SKYMED 1 3.7 18:42:01 10° N 18:46:13 50° WNW 18:50:24 10° SSW
Intelsat 5-3 Rocket 3.2 18:47:04 10° W 18:50:05 48° S 18:56:35 10° ESE
Cosmos 1758 Rocket 3.7 18:46:43 10° N 18:51:06 53° E 18:55:28 10° SSE
ALOS 2.8 18:48:21 10° SE 18:52:35 36° ENE 18:56:49 10° N
XTE 4.4 18:50:18 10° SW 18:52:37 22° SSE 18:54:51 10° ESE
H-2A R/B 4.5 18:52:18 10° ESE 18:54:11 14° ENE 18:56:04 10° NE
Gbstr 26 Del rocket 4.4 18:51:23 10° S 18:54:45 22° ESE 18:58:37 10° ENE
Thor Agena Rocket 3.5 18:55:13 10° NNE 19:00:25 83° ESE 19:05:32 10° S
Yuri Rocket 4.2 18:58:25 10° W 19:03:23 40° N 19:07:21 11° ENE
Cosmos 1544 3.6 19:00:14 10° SSE 19:03:33 35° E 19:06:51 10° NNE
NOAA 12 4.1 18:59:47 10° SSE 19:04:55 60° ENE 19:10:04 10° N
Cosmos 2228 3.4 19:00:44 10° S 19:05:06 70° W 19:09:25 10° N
SPOT 3 Rocket 3.6 19:00:07 10° SSE 19:05:16 87° W 19:10:25 10° NNW
FENGYUN 3A 3.7 19:04:39 10° SSE 19:09:52 57° ENE 19:15:06 10° N
METEOR-M 4.4 19:05:29 10° S 19:10:48 74° WSW 19:16:09 10° NNW
Cosmos 990 Rocket 3.9 19:05:55 10° N 19:11:00 65° ENE 19:16:05 10° SSE
Cosmos 1898 Rocket 3.8 19:06:51 10° NNW 19:11:59 69° WSW 19:17:06 10° S
Cosmos 1356 Rocket 3.9 19:12:10 10° NNE 19:16:11 38° E 19:20:11 10° SSE
Cosmos 1656 Rocket 4.0 19:11:14 10° N 19:16:28 41° ENE 19:21:37 10° SE
OE (NEXTSAT) 4.3 19:12:59 10° NW 19:16:29 71° NE 19:18:44 20° SE
USA 234 3.4 19:10:24 10° SE 19:16:45 56° NE 19:23:07 10° NNW
Cosmos 1766 3.1 19:14:12 10° S 19:18:08 81° E 19:22:03 10° N
Cosmos 1378 3.2 19:18:30 10° N 19:22:16 78° W 19:26:01 10° S
ATLAS CENTAUR R/B 3.8 19:15:33 10° NNW 19:22:29 23° NNE 19:24:24 19° ENE
Cosmos 2154 Rocket 4.3 19:16:50 10° SSE 19:22:34 42° E 19:28:22 10° NNE
Mugunghwa Rocket 4.2 19:15:15 10° WSW 19:22:51 77° SSE 19:27:44 21° ENE
Cosmos 2074 Rocket 4.0 19:16:56 10° S 19:23:09 86° W 19:29:22 10° N
Cosmos 2181 Rocket 4.2 19:17:44 10° N 19:23:51 74° W 19:29:56 10° S
Cosmos 1707 3.2 19:20:00 10° NNW 19:23:53 64° W 19:27:45 10° S
Cosmos 1812 Rocket 3.7 19:19:58 10° SSE 19:24:14 49° E 19:28:32 10° NNE
SL-27 R/B 2.3 19:22:49 10° S 19:26:21 70° ESE 19:29:55 10° NNE
Cosmos 909 Rocket 4.2 19:18:46 10° NNW 19:26:25 83° ENE 19:32:49 10° SSE
Resurs 01 Rocket 3.8 19:30:53 11° NE 19:30:53 11° NE 19:31:13 10° NE
HJ-1C 4.3 19:35:28 32° NE 19:35:28 32° NE 19:37:45 10° N
Cosmos 2341 Rocket 4.4 19:30:59 10° SSE 19:36:35 37° E 19:42:11 10° NNE
GMS 1 Rocket 4.4 19:33:36 10° WSW 19:38:45 84° SSE 19:40:15 40° ENE
Cosmos 1758 3.4 19:35:13 10° SSE 19:39:06 48° E 19:42:57 10° NNE
GP-B 4.2 19:36:12 10° NNE 19:38:40 26° NE 19:38:40 26° NE
FALCON 9 R/B 3.7 19:40:29 10° NNW 19:42:57 16° NNE 19:44:21 15° NE
SWIFT 4.0 19:40:49 10° WSW 19:44:14 24° SSW 19:45:42 19° SSE
Cosmos 1833 Rocket 3.8 19:43:35 10° SSE 19:46:28 25° SE 19:46:28 25° SE
FengYun 1-2 T 4.1 19:43:11 10° SSE 19:48:47 83° ENE 19:54:23 10° N
Cosmos 1805 3.5 19:45:47 10° SSW 19:49:38 67° W 19:53:31 10° N
In-Cosmos 22 4.1 19:44:47 10° N 19:50:31 69° E 19:56:15 10° SSE
OAO 3 Rocket 3.4 19:48:30 10° WSW 19:53:21 67° NNW 19:54:54 41° NE
GEOS 3 Rocket 3.8 19:53:00 43° E 19:54:08 51° ESE 19:59:17 10° SSW
Meteor 2-8 Rocket 4.3 19:50:56 10° N 19:57:02 71° E 20:03:04 10° SSE
Lacrosse 4 Rocket 3.7 19:58:23 10° S 19:59:06 14° S 19:59:06 14° S
Cosmos 2285 Rocket 3.9 19:57:35 10° S 20:03:56 71° ESE 20:10:20 10° NNE
Nadezhda 3 Rocket 4.0 19:58:11 10° N 20:04:17 54° E 20:04:40 53° E
NOSS 3-3 (A) 3.7 20:03:32 10° SSW 20:09:27 76° ESE 20:11:28 44° NE
NOSS 3-3 (C) 3.7 20:03:38 10° SSW 20:09:32 75° ESE 20:11:23 46° NE
NOSS 3-1 (A) 4.1 20:02:24 10° NNW 20:10:32 71° ENE 20:13:50 42° SE
MOS 1-B Rocket 4.4 20:11:45 46° NE 20:11:45 46° NE 20:16:25 10° N
Cosmos 1295 Rocket 4.3 20:05:51 10° S 20:11:57 71° E 20:18:00 10° N
Cosmos 2082 Rocket 3.0 20:07:24 10° S 20:10:35 34° S 20:10:35 34° S
NOSS 3-1 (C) 4.3 20:10:13 10° NNW 20:18:23 77° WSW 20:23:55 25° SSE
ATLAS 5 CENTAUR R/B 2.1 20:15:15 10° SW 20:18:55 55° WSW 20:18:55 55° WSW
Milstar 3 Cent rocket 2.9 20:24:00 10° WNW 20:28:21 38° NNW 20:28:21 38° NNW
Centaur D AC-28 3.7 20:34:46 10° SW 20:36:02 23° SW 20:36:02 23° SW
NATO 3D Rocket 4.1 20:32:19 10° W 20:37:20 55° W 20:37:20 55° W
SJ 16-02 4.0 20:37:01 10° NNW 20:37:23 12° NNW 20:37:23 12° NNW
